Saint Martin Island, Sint Maarten

8:52 PM AST on February 23, 2017 (GMT -0400)
Princess Juliana International

Weather History for TNCM - April, 2013

Change the Weather History Date:

Wednesday, April 3, 2013

  Actual Average Record
Temperature  
Mean Temperature 81 °F -  
Max Temperature 84 °F 83 °F 86 °F (2005)
Min Temperature 78 °F 74 °F 68 °F (2007)
Cooling Degree Days 16    
Growing Degree Days 31 (Base 50)    
Moisture  
Dew Point 71 °F    
Average Humidity 72    
Maximum Humidity 78    
Minimum Humidity 57    
Precipitation  
Precipitation 0.00 in 0.09 in - ()
Sea Level Pressure  
Sea Level Pressure 30.05 in    
Wind  
Wind Speed 10 mph ()    
Max Wind Speed 14 mph    
Max Gust Speed -    
Visibility 8.0 miles    
Events      
Averages and records for this station are not official NWS values.
T = Trace of Precipitation, MM = Missing Value Source: Averaged Metar Reports

Daily Weather History Graph

Daily Weather History Graph

Search for Another Location

Airport or City:

Trip Planner

Search our weather history database for the weather conditions in past years. The results will help you decide how hot, cold, wet, or windy it might be!

Date:

Astronomy

Apr. 03, 2013 Rise Set
Actual Time 6:05 AM AST 6:26 PM AST
Civil Twilight 5:43 AM AST 6:48 PM AST
Nautical Twilight 5:17 AM AST 7:13 PM AST
Astronomical Twilight 4:51 AM AST 7:39 PM AST
Moon 12:48 AM AST (4/3) 12:25 PM AST (4/3)
Length of Visible Light 13h 05m
Length of Day
12h 21m
Last Quarter, 45% of the Moon is Illuminated
Apr 3
Last Quarter
Apr 10
New
Apr 18
First Quarter
Apr 25
Full
May 2
Last Quarter

Hourly Weather History & Observations

Time (AST) Temp. Heat Index Dew Point Humidity Pressure Visibility Wind Dir Wind Speed Gust Speed Precip Events Conditions
12:00 AM 78.8 °F - 71.6 °F 78% 30.06 in 6.2 mi ESE 13.8 mph - N/A   Partly Cloudy
1:00 AM 78.8 °F - 71.6 °F 78% 30.04 in 6.2 mi ESE 11.5 mph - N/A   Partly Cloudy
2:00 AM 78 °F - 71 °F 74% 30.02 in 19 mi ESE 9.2 mph - -   Scattered Clouds
2:00 AM 78.8 °F - 71.6 °F 78% 30.01 in 6.2 mi ESE 9.2 mph - N/A   Partly Cloudy
3:00 AM 78.8 °F - 71.6 °F 78% 30.01 in 6.2 mi SE 8.1 mph - N/A   Partly Cloudy
4:00 AM 78.8 °F - 71.6 °F 78% 30.01 in 6.2 mi SE 8.1 mph - N/A   Scattered Clouds
5:00 AM 78 °F - 71 °F 72% 30.03 in 19 mi ESE 9.2 mph - -   Scattered Clouds
5:00 AM 78.8 °F - 71.6 °F 78% 30.01 in 6.2 mi ESE 9.2 mph - N/A   Partly Cloudy
6:00 AM 78.8 °F - 71.6 °F 78% 30.04 in 6.2 mi SE 8.1 mph - N/A   Scattered Clouds
7:00 AM 78.8 °F - 71.6 °F 78% 30.06 in 6.2 mi SE 10.4 mph - N/A   Scattered Clouds
8:00 AM 80 °F - 71 °F 68% 30.09 in 19 mi ESE 9.2 mph - -   Partly Cloudy
8:00 AM 80.6 °F 84.6 °F 71.6 °F 74% 30.09 in 6.2 mi ESE 9.2 mph - N/A   Scattered Clouds
9:00 AM 80.6 °F 84.6 °F 71.6 °F 74% 30.09 in 6.2 mi ESE 11.5 mph - N/A   Scattered Clouds
10:00 AM 84.2 °F 89.6 °F 71.6 °F 66% 30.12 in 6.2 mi SE 9.2 mph - N/A   Partly Cloudy
11:00 AM 83 °F - 70 °F 57% 30.12 in 19 mi ESE 12.7 mph - -   Partly Cloudy
11:00 AM 82.4 °F 86.3 °F 69.8 °F 66% 30.09 in 6.2 mi ESE 12.7 mph - N/A   Scattered Clouds
12:00 PM 84.2 °F 89.6 °F 71.6 °F 66% 30.06 in 6.2 mi SE 11.5 mph - N/A   Partly Cloudy
1:00 PM 82.4 °F 87.2 °F 71.6 °F 70% 30.06 in 6.2 mi SE 10.4 mph - N/A   Mostly Cloudy
2:00 PM 83 °F - 71 °F 60% 30.05 in 25 mi SE 11.5 mph - -   Mostly Cloudy
2:00 PM 82.4 °F 87.2 °F 71.6 °F 70% 30.04 in 6.2 mi SE 11.5 mph - N/A   Mostly Cloudy
3:00 PM 84.2 °F 89.6 °F 71.6 °F 66% 30.01 in 6.2 mi SE 11.5 mph - N/A   Mostly Cloudy
4:00 PM 82.4 °F 86.3 °F 69.8 °F 66% 30.01 in 6.2 mi ESE 11.5 mph - N/A   Partly Cloudy
5:00 PM 82 °F - 71 °F 62% 30.02 in 25 mi ESE 11.5 mph - -   Partly Cloudy
5:00 PM 82.4 °F 87.2 °F 71.6 °F 70% 30.01 in 6.2 mi ESE 10.4 mph - N/A   Scattered Clouds
6:00 PM 80.6 °F 84.6 °F 71.6 °F 74% 30.01 in 6.2 mi ESE 9.2 mph - N/A   Scattered Clouds
7:00 PM 78.8 °F - 71.6 °F 78% 30.04 in 6.2 mi East 10.4 mph - N/A   Mostly Cloudy
8:00 PM 79 °F - 71 °F 69% 30.05 in 25 mi ESE 11.5 mph - -   Partly Cloudy
8:00 PM 78.8 °F - 71.6 °F 78% 30.04 in 6.2 mi East 10.4 mph - N/A   Scattered Clouds
9:00 PM 78.8 °F - 71.6 °F 78% 30.06 in 6.2 mi East 10.4 mph - N/A   Partly Cloudy
10:00 PM 78.8 °F - 71.6 °F 78% 30.06 in 6.2 mi ESE 10.4 mph - N/A   Scattered Clouds
11:00 PM 78 °F - 70 °F 71% 30.08 in 25 mi East 10.4 mph - -   Partly Cloudy
11:00 PM 78.8 °F - 69.8 °F 74% 30.06 in 6.2 mi East 10.4 mph - N/A   Scattered Clouds